www.pogodaiklimat.ru

Погода и климат >> Архив погоды >> Россия >> Кировская область >> Нагорск


ПОГОДА в Нагорске

  • Прогноз погоды в Нагорске
  • Монитор погоды в Нагорске
  • Климат города

АРХИВ ПОГОДЫ в Нагорске

Время (UTC), дата Ветер
(напр.,м/с)
 
Видим.   Явления Облачность Т
(С)
Тd
(С)
f
(%)
Тe
(С)
Тes
(С)
Комфортность P
(гПа)
Po
(гПа)
Тmin
(С)
Tmax
(С)
R
(мм)
R24
(мм)
S
(см)
12 17.01 штиль 0
{1}
50 км [диам. сложн. отлож. 37 мм] 9/9 300 м
[Sc]
-12.9 -14.2 90 -13 -13 1026.7 998.5
15 17.01 штиль 0
{1}
50 км [диам. сложн. отлож. 37 мм] 10/10 300 м
[Sc]
-12.6 -13.9 90 -13 -13 1026.3 998.2 -12.2
18 17.01 ЮВ 1-1
{2}
10 км слабый ливневой снег [диам. сложн. отлож. 37 мм] 10/10 300 м
[Cb calv]
-13.4 -15.4 85 -16 -16 1026.5 998.3
21 17.01 штиль 0
{1}
50 км [диам. сложн. отлож. 37 мм] 10/10 420 м
[Sc]
-14.2 -16.2 85 -14 -14 1026.8 998.4
00 18.01 ЮВ 1-1
{2}
10 км слабый ливневой снег [диам. сложн. отлож. 37 мм] 10/10 360 м
[Cb calv]
-13.5 -15.5 85 -16 -16 1026.4 998.2
03 18.01 ЮВ 1-1
{2}
10 км слабый ливневой снег [диам. сложн. отлож. 37 мм] 10/10 360 м
[Cb calv]
-12.8 -14.1 90 -15 -15 1025.7 997.5 -14.4 0.0 48
06 18.01 ЮВ 1-1
{1}
12 км слабый ливневой снег [диам. сложн. отлож. 37 мм] 10/10 400 м
[Cb calv]
-12.4 -13.7 90 -15 -15 1026.4 998.3
09 18.01 ЮВ 1-3
{3}
8000 м слабый ливневой снег [диам. сложн. отлож. 34 мм] 10/10 450 м
[Cb calv]
-12.1 -13.4 90 -14 -14 1027.5 999.4
12 18.01 ЮВ 2-3
{4}
50 км {ливн. осадки} [диам. сложн. отлож. 27 мм] 10/10 500 м
[Cb calv]
-12.3 -13.6 90 -17 -17 1027.3 999.2
15 18.01 ЮВ 1-2
{4}
50 км [диам. сложн. отлож. 25 мм] 10/10 500 м
[Cb calv]
-12.6 -13.9 90 -15 -15 1027.6 999.5 -12.0 0.3
18 18.01 В 1-2
{3}
50 км {ливн. осадки} [диам. сложн. отлож. 23 мм] 10/10 570 м
[Cb calv]
-12.8 -14.1 90 -15 -15 1028.0 999.8
21 18.01 ЮВ 2-4
{5}
10 км слабый ливневой снег [диам. сложн. отлож. 20 мм] 10/10 420 м
[Cb calv]
-13.4 -14.7 90 -18 -18 1029.0 1000.8
00 19.01 В 1-2
{4}
50 км {ливн. осадки} [диам. сложн. отлож. 16 мм] 10/10 420 м
[Cb calv]
-14.6 -16.6 85 -17 -17 1029.9 1001.5
03 19.01 ЮВ 1-2
{4}
50 км [диам. сложн. отлож. 12 мм] 4/0
[Ac trans]
-18.5 -20.4 85 -21 -21 1031.1 1002.3 -18.5 0.0 48
06 19.01 ЮВ 1-1
{2}
50 км [диам. сложн. отлож. 12 мм] 4/0
[Ci fib]
-19.6 -22.2 80 -23 -22 1032.6 1003.4 -19.8
09 19.01 ЮВ 1-2
{2}
50 км [диам. сложн. отлож. 12 мм] 4/0
[Ci fib]
-17.4 -19.3 85 -20 -19 1033.9 1005.1
12 19.01 В 1-1
{2}
50 км [диам. сложн. отлож. 12 мм] 3/0
[Ci fib]
-17.3 -19.2 85 -20 -20 1034.4 1005.6
15 19.01 ЮВ 1-2
{3}
50 км [диам. сложн. отлож. 8 мм] ясно -18.8 -20.7 85 -22 -22 1035.5 1006.4 -16.6
18 19.01 В 1-2
{2}
50 км [диам. сложн. отлож. 8 мм] ясно -19.9 -22.5 80 -23 -23 1036.0 1006.8
21 19.01 В 1-1
{2}
50 км [диам. сложн. отлож. 8 мм] 5/0
[Ac trans]
-19.8 -22.4 80 -23 -23 1037.1 1007.8
00 20.01 штиль 0
{2}
10 км слабый ливневой снег [диам. сложн. отлож. 8 мм] 9/5 600 м
[Cb calv Ac trans]
-17.8 -19.7 85 -18 -18 1037.5 1008.4
03 20.01 В 1-1
{2}
10 км слабый ливневой снег [диам. сложн. отлож. 8 мм] 10/8 800 м
[Cb calv Ac und]
-15.9 -17.8 85 -19 -19 1036.9 1008.0 -20.5 0.0 48
06 20.01 В 1-1
{2}
50 км {ливн. осадки} [диам. сложн. отлож. 8 мм] 9/0
[Ac trans]
-16.0 -17.9 85 -19 -19 1037.2 1008.3
09 20.01 В 1-2
{3}
50 км [диам. сложн. отлож. 8 мм] 1/0
[Ci fib]
-14.2 -16.2 85 -17 -16 1037.1 1008.5
12 20.01 СВ 1-2
{3}
50 км [диам. сложн. отлож. 6 мм] 8/0
[Ci fib]
-15.2 -17.2 85 -18 -18 1035.0 1006.4
15 20.01 СВ 1-3
{4}
50 км [диам. сложн. отлож. 2 мм] ясно -18.1 -20.0 85 -21 -21 1035.3 1006.4 -13.5 0.0
18 20.01 СВ 1-3
{4}
50 км [диам. сложн. отлож. 2 мм] ясно -20.3 -22.8 80 -23 -23 1034.5 1005.3
21 20.01 СВ 1-2
{3}
50 км [диам. сложн. отлож. 2 мм] ясно -21.4 -23.9 80 -25 -25 1033.8 1004.5
00 21.01 СВ 1-1
{2}
50 км [диам. сложн. отлож. 2 мм] ясно -21.8 -24.3 80 -25 -25 1033.0 1003.6
03 21.01 СВ 1-2
{3}
50 км [диам. сложн. отлож. 2 мм] ясно -21.6 -24.1 80 -25 -25 1032.2 1002.8 -21.9 48
06 21.01 СВ 1-1
{3}
50 км [диам. сложн. отлож. 2 мм] 6/4 600 м
[Sc Ci fib]
-21.3 -23.8 80 -24 -24 1032.1 1002.8
09 21.01 В 1-2
{4}
50 км [диам. сложн. отлож. 2 мм] 8/0
[Ac trans Ci fib]
-18.1 -20.0 85 -21 -20 1032.1 1003.2
12 21.01 В 1-3
{4}
50 км 8/5 600 м
[Cb calv Ac trans]
-16.9 -18.8 85 -20 -20 1032.0 1003.2
15 21.01 В 1-3
{4}
10 км слабый ливневой снег 10/10 300 м
[Cb calv]
-16.4 -18.3 85 -19 -19 1032.0 1003.3 -16.4 0.0
18 21.01 В 1-3
{4}
10 км слабый ливневой снег 9/5 600 м
[Cb calv Ac trans]
-15.7 -17.6 85 -18 -18 1031.2 1002.5
21 21.01 В 2-4
{4}
10 км слабый ливневой снег 10/10 360 м
[Cb calv]
-14.5 -16.5 85 -19 -19 1029.4 1001.0
00 22.01 В 2-4
{5}
10 км слабый ливневой снег 10/10 300 м
[Cb calv]
-13.7 -15.0 90 -18 -18 1027.4 999.0
03 22.01 В 4-6
{7}
10 км слабый ливневой снег {метель} 10/10 300 м
[Cb calv]
-12.7 -14.0 90 -20 -20 1025.0 996.9 -16.4 1 48
06 22.01 В 4-4
{8}
2000 м снег {ливн. осадки} 10/0 270 м
[As op]
-12.6 -13.9 90 -20 -20 1023.4 995.4
09 22.01 В 4-5
{7}
1600 м сильный снег {метель} 10/0 240 м
[As op]
-12.3 -13.6 90 -19 -19 1023.4 995.4
12 22.01 В 4-5
{7}
3500 м снег {метель} 10/0 330 м
[As op]
-11.2 -12.5 90 -18 -18 1023.8 995.9
15 22.01 ЮВ 3-4
{6}
10 км слабый ливневой снег 8/8 300 м
[Cb calv]
-10.7 -12.0 90 -17 -17 1025.2 997.3 -10.4 5
18 22.01 В 3-4
{5}
10 км слабый ливневой снег 8/8 330 м
[Cb calv]
-11.6 -12.9 90 -18 -18 1027.1 999.1
21 22.01 В 2-3
{4}
50 км {ливн. осадки} 8/8 500 м
[Cb calv]
-12.1 -13.4 90 -17 -17 1028.9 1000.8
00 23.01 В 2-3
{4}
10 км слабый ливневой снег 10/10 300 м
[Cb calv]
-12.3 -13.6 90 -17 -17 1030.2 1002.1
03 23.01 В 2-3
{4}
10 км слабый ливневой снег 10/10 330 м
[Cb calv]
-12.4 -13.7 90 -17 -17 1030.9 1002.6 -12.6 0.2 50
06 23.01 В 1-2
{4}
8000 м слабый ливневой снег 10/10 400 м
[Cb calv]
-12.7 -14.0 90 -15 -15 1032.1 1003.7 -12.8
09 23.01 В 1-2
{3}
50 км {ливн. осадки} 10/0
[Ac und]
-11.3 -12.6 90 -14 -13 1031.8 1003.6
12 23.01 штиль 0
{3}
6000 м слабый ливневой снег 10/10 400 м
[Cb calv]
-10.5 -11.8 90 -11 -11 1031.6 1003.5
15 23.01 В 1-2
{3}
10 км слабый снег {ливн. осадки} 10/10 180 м
[Frnb Ns]
-10.4 -11.7 90 -13 -13 1031.2 1003.1 -10.4 1
18 23.01 штиль 0
{3}
4000 м слабый снег {ливн. осадки} 10/10 180 м
[Frnb Ns]
-10.3 -11.6 90 -11 -11 1030.0 1002.1
21 23.01 В 1-3
{3}
1000 м сильный снег 10/10 180 м
[Frnb Ns]
-9.7 -10.9 91 -12 -12 1029.5 1001.7
00 24.01 В 1-2
{3}
4000 м снег 10/10 210 м
[Frnb Ns]
-9.8 -11.0 91 -12 -12 1029.8 1001.9
03 24.01 штиль 0
{2}
10 км слабый снег 10/10 240 м
[Frnb Ns]
-10.0 -11.3 90 -10 -10 1030.1 1002.2 -10.5 9 59
06 24.01 ЮВ 2-3
{4}
6000 м слабый снег 10/10 240 м
[Frnb Ns]
-9.3 -10.5 91 -14 -14 1031.2 1003.2

 

Местоположение метеостанции Нагорск (Кировская область, Россия): широта 59.32 долгота 50.83 высота над уровнем моря 213 м.

В архиве по умолчанию представлена погода в Нагорске за последнюю неделю. Архивные данные за месяц целиком и за предыдущие месяцы, начиная с января 2011 года, Вы можете получить, выбрав интересующий диапазон дат из раскрывающегося списка и нажав кнопку "Ввод!".

Внимание! Время в таблицах - всемирное. Для получения местного времени необходимо прибавить поправку, которая в Нагорске равна 3 ч.

Смотрите также архив погоды в соседних городах и на ближайших метеорологических станциях:

Погода в Белой Холунице (Кировская область, Россия) (55 км)
Погода в Кирсе (Кировская область, Россия) (81 км)
Погода в Кирове (Кировская область, Россия) (106 км)
Погода в Фаленках (Кировская область, Россия) (116 км)
Погода в Койгородке (Коми, Россия) (126 км)
Погода в Объячеве (Коми, Россия) (134 км)
Погода в Кумене (Кировская область, Россия) (146 км)
Погода в Опарино (Кировская область, Россия) (155 км)
Погода в Усть-Черной (Пермский край, Россия) (163 км)
Погода в Глазове (Удмуртия, Россия) (167 км)

Пояснения к столбцам:

Ветер - указаны скорость ветра в м/с - средняя за 10 мин, порывы в срок и между сроками (в фигурных скобках) и направление, откуда дует ветер: С - северный, СВ - северо-восточный, В - восточный, ЮВ - юго-восточный, Ю - южный, ЮЗ - юго-западный, З - западный, СЗ - северо-западный.
Видимость - горизонтальная дальность видимости в метрах или километрах. При видимости от 1 до 10 км при отсутствии осадков обычно наблюдается дымка, при ухудшении видимости до 1 км и менее - туман. В сухую погоду видимость может ухудшаться дымом, пылью или мглою.
Явления - указаны атмосферные явления, наблюдавшиеся в срок или в последний час перед сроком; фигурными скобками обозначены явления, наблюдавшиеся между сроками (за 1-3 часа до срока); квадратными скобками обозначены град или гололедные отложения с указанием их диаметра в мм.
Облачность - указаны через наклонную черту общая и нижняя облачность в баллах и высота нижней границы облаков в метрах; квадратными скобками обозначены формы облаков: Ci - перистые, Cs - перисто-слоистые, Cc - перисто-кучевые, Ac - высококучевые, As - высокослоистые, Sc - слоисто-кучевые, Ns - слоисто-дождевые, Cu - кучевые, Cb - кучево-дождевые. Подробнее классификацию облаков см. в Атласе облаков (PDF).
T - Температура воздуха - температура, измеренная на высоте 2 м над землей.
Td - Температура точки росы - температура, при понижении до которой содержащийся в воздухе водяной пар достигнет насыщения.
f - Относительная влажность воздуха - влажноcть воздуха, измеренная на высоте 2 м над землей.
Te - Эффективная температура - температура, которую ощущает одетый по сезону человек в тени. Характеристика душности погоды. При расчете учитывается влияние влажности воздуха и скорости ветра на теплоощущения человека.
Tes - Эффективная температура на солнце - температура, которую ощущает человек, с поправкой на солнечный нагрев. Характеристика знойности погоды. Зависит от высоты солнца над горизонтом, облачности и скорости ветра. Ночью, в пасмурную погоду, а также при ветре 12 м/с и более поправка равна нулю.
P - Атмосферное давление - приведенное к уровню моря атмосферное давление.
Po - Атмосферное давление - измеренное на уровне метеостанции атмосферное давление.
Tmin - Минимальная температура - минимум температуры воздуха на высоте 2 м над землей.
Tmax - Максимальная температура - максимум температуры воздуха на высоте 2 м над землей.
R - Количество осадков - Количество выпавших осадков за период времени, мм. При наведении курсора мыши на число - период времени, за который выпало указанное количество осадков.
R24 - Количество осадков - Количество выпавших осадков за 24 часа, мм.
S - Снежный покров - Высота снежного покрова, см. При наведении курсора мыши на число - состояние снежного покрова и степень покрытия местности в баллах.